Regional Weather Roundup
Issued by NWS Charleston, SC

Current Version | Previous Version | Graphics & Text | Print | Product List | Glossary On
Versions: 1 2 3 4 5 6 7 8 9 10 11 12 13 14 15 16 17 18 19 20 21 22 23 24 25 26 27 28 29 30 31 32 33 34 35 36 37 38 39 40 41 42 43 44 45 46 47 48 49 50
000
ASUS42 KCHS 240827
RWRCHS

REGIONAL WEATHER ROUNDUP
NATIONAL WEATHER SERVICE CHARLESTON SC
400 AM EDT FRI MAR 24 2017

NOTE: "FAIR" INDICATES FEW OR NO CLOUDS BELOW 12,000 FEET WITH NO
SIGNIFICANT WEATHER AND/OR OBSTRUCTIONS TO VISIBILITY.

NOT ALL STATIONS ARE QUALITY CONTROLLED. USE DATA WITH CAUTION...
ESPECIALLY DEWPOINT OBSERVATIONS.

SCZ027-030-031-034>040-042>050-240900-
...SOUTHEAST SOUTH CAROLINA...

CITY           SKY/WX    TMP DP  RH WIND       PRES   REMARKS
N CHARLESTON   PTCLDY    48  44  86 NE7       30.45F
WATERFRONT PRK   N/A     55  52  89 NE7       30.44F
JOHNS ISLAND   FAIR      52  50  93 CALM      30.45S
PINOPOLIS        N/A     48  45  87 NE7       30.38F
MONCKS CORNER  FAIR      45  37  76 CALM      30.47S
SUMMERVILLE    FAIR      43  41  93 NE3       30.47S
BEAUFORT MCAS  MOCLDY    48  46  93 N6        30.44F
BEAUFORT ARPT  FAIR      50  46  87 NE6       30.43F
HILTON HEAD IS CLOUDY   N/A N/A N/A N6        30.43F
WALTERBORO     SUNNY     46  41  81 NE5       30.47S
ALLENDALE      CLOUDY    46  39  76 CALM      30.45F

...SOUTHERN MIDLANDS AND PEE DEE...

CITY           SKY/WX    TMP DP  RH WIND       PRES   REMARKS
GEORGETOWN     FAIR      50  46  87 E5        30.48S
KINGSTREE      FAIR      41  34  75 CALM      30.49S
ORANGEBURG     PTCLDY    46  38  73 NE5       30.48S
BARNWELL       PTSUNNY   48  39  71 CALM      30.47S
AIKEN          CLOUDY    46  36  66 E5        30.50S
MANNING        FAIR      41  36  81 CALM      30.49S
COLUMBIA       CLOUDY    49  36  61 E6        30.49S
SUMTER         PTCLDY    41  35  80 NE6       30.47F
FLORENCE       PTCLDY    39  34  82 NE6       30.51S WCI  35
MYRTLE BEACH   CLEAR     45  39  81 N7        30.50S
N MYRTLE BEACH PTCLDY    41  38  89 N6        30.50R

$$

GAZ063-065-086>088-099>101-113>116-118-119-134>141-150-240900-
...SOUTHEAST GEORGIA...

CITY           SKY/WX    TMP DP  RH WIND       PRES   REMARKS
SAVANNAH ARPT  PTCLDY    48  42  80 N5        30.44S
HUNTER AAF     CLEAR     51  50  95 CALM      30.40F
FORT STEWART   CLEAR     50  46  87 N5        30.40S
STATESBORO     CLEAR     49  44  82 CALM      30.45S
SYLVANIA       MOSUNNY  N/A N/A N/A E5        30.45S
CLAXTON        FAIR     N/A N/A N/A N3        30.44S

...CSRA...CENTRAL AND FAR SOUTHEAST GEORGIA...

CITY           SKY/WX    TMP DP  RH WIND       PRES   REMARKS
THOMSON        CLOUDY    51  37  57 S5        30.51S
AUGUSTA-BUSH   CLOUDY    50  37  61 E5        30.47S
AUGUSTA-DANIEL CLOUDY    52  33  48 E6        30.47S
SWAINSBORO     FAIR      52  45  76 E6        30.45S
VIDALIA        CLEAR     52  46  82 NE6       30.43S
EASTMAN        FAIR      53  42  67 E3        30.45S
HAZLEHURST     FAIR      52  52 100 CALM      30.41S
ALMA           CLOUDY    51  50  96 CALM      30.40F
WAYCROSS       PTCLDY    55  55 100 E6        30.39F
JESUP          FAIR      52  50  93 NE3       30.41S
BAXLEY         CLOUDY    52  52 100 NE5       30.41S
BRUNSWICK      FOG       54  54 100 CALM      30.39F VSB 1/2
SAINT SIMONS   CLEAR     61  55  81 E5        30.38F

$$

SCZ027-028-034-036>038-045-046-048>050-GAZ119-141-240900-
...LAKE AND SUPPLEMENTAL COASTAL OBSERVATIONS...

STATION/POSITION TIME  TEMP    WIND        PRES    WAVE   SWELL
                       AIR SEA DIR/SP/G            HT/PER HT/PER/DIR
                 (UTC) (F)     (DEG/KT/KT) (MB)    (FT/S) (FT/S/D)
WINYAH BAY       0745   55      70/  9     1032.0S
LAKE MURRAY      0820   47      40/  1/  3 1031.5
ACE BASIN NERRS  0730   48      10/  1     1031.0S
FORT PULASKI     0800   57 60   50/  7/  9 1030.3
SAPELO ISLAND    0800   58      60/  3     1029.0

$$

ANZ835-935-AMZ111-154-330-350-352-354-370-450-454-472-240900-
...C-MAN AND BUOY OBSERVATIONS...

STATION/POSITION TIME  TEMP    WIND        PRES    WAVE   SWELL
                       AIR SEA DIR/SP/G            HT/PER HT/PER/DIR
                 (UTC) (F)     (DEG/KT/KT) (MB)    (FT/S) (FT/S/D)
BUOY 41004       0750   66 71  110/ 14/ 17 1030.1F   6/ 7   3/ 70/ 7
BUOY 41008       0750   64 62  100/ 10/ 12 1028.6F   6/ 7   5/110/ 7
FOLLY BEACH CMAN 0800   58      50/ 15/ 16 1031.2F
CAPERS NEARSHORE 0708   58      60/ 16/ 19 1031.1F
FRIPP NEARSHORE  0708   59 59   60/ 14/ 17 1030.3F


STATION/POSITION TIME  TEMP    WIND        PRES    WAVE   SWELL
                       AIR SEA DIR/SP/G            HT/PER HT/PER/DIR
                 (UTC) (F)     (DEG/KT/KT) (MB)    (FT/S) (FT/S/D)
5E ST. MARYS GA  0800      63                N/A     6/ 7   2/ 80/11
FRYING PAN BUOY  0810   63 70  110/ 10/ 14 1031.8
BUOY 41025       0750   56 74   20/  6/ 12 1033.5F   7/10   7/ 50/10
CAPE LOOKOUT NC  0800   46      10/ 13/ 15 1033.2F
BUOY 41002       0750   62 73   60/ 16/ 19 1031.2F   6/10   3/ 20/10
BUOY 41010       NOT AVBL
ST AUGUSTINE FL  0800   66 65   90/ 13/ 15 1028.1F


$$




USA.gov is the U.S. government's official web portal to all federal, state and local government web resources and services.